This is the latest recevied weather packets stored in our database for station/object DL3MEB-6. If no packets are shown the sender has not sent any weather packets the latest 10 day(s).
| Time | Temp. | Humidity | Pressure | Rain* | Wind** | Luminosity | Snow |
|---|---|---|---|---|---|---|---|
| 1778268613 | 15.56° C | 58% | 1015.5 hPa | 0 mm | - | - | - |
| 1778267706 | 16.11° C | 55% | 1015.5 hPa | 0 mm | - | - | - |
| 1778266799 | 17.22° C | 53% | 1015.1 hPa | 0 mm | - | - | - |
| 1778265894 | 17.78° C | 52% | 1014.9 hPa | 0 mm | - | - | - |
| 1778264995 | 18.33° C | 49% | 1014.7 hPa | 0 mm | - | - | - |
| 1778264090 | 18.89° C | 46% | 1014.6 hPa | 0 mm | - | - | - |
| 1778263188 | 20° C | 44% | 1014.4 hPa | 0 mm | - | - | - |
| 1778262280 | 21.11° C | 42% | 1014.2 hPa | 0 mm | - | - | - |
| 1778261379 | 21.11° C | 40% | 1014.1 hPa | 0 mm | - | - | - |
| 1778260468 | 22.22° C | 38% | 1014.2 hPa | 0 mm | - | - | - |
| 1778259565 | 22.22° C | 39% | 1014.1 hPa | 0 mm | - | - | - |
| 1778258658 | 22.22° C | 42% | 1014 hPa | 0 mm | - | - | - |
| 1778257751 | 22.78° C | 36% | 1014 hPa | 0 mm | - | - | - |
| 1778256841 | 22.78° C | 41% | 1014.1 hPa | 0 mm | - | - | - |
| 1778255934 | 22.78° C | 39% | 1014.1 hPa | 0 mm | - | - | - |
| 1778255034 | 22.22° C | 40% | 1014.2 hPa | 0 mm | - | - | - |
| 1778254128 | 21.11° C | 39% | 1014.2 hPa | 0 mm | - | - | - |
| 1778253226 | 20.56° C | 40% | 1014.4 hPa | 0 mm | - | - | - |
| 1778252315 | 21.67° C | 39% | 1014.4 hPa | 0 mm | - | - | - |
| 1778251407 | 22.22° C | 41% | 1014.5 hPa | 0 mm | - | - | - |
| 1778250499 | 21.11° C | 44% | 1014.4 hPa | 0 mm | - | - | - |
| 1778249586 | 22.22° C | 41% | 1014.5 hPa | 0 mm | - | - | - |
| 1778248682 | 21.67° C | 41% | 1014.5 hPa | 0 mm | - | - | - |
| 1778247776 | 20.56° C | 42% | 1014.9 hPa | 0 mm | - | - | - |
| 1778246873 | 20.56° C | 48% | 1014.9 hPa | 0 mm | - | - | - |
* Rain latest hour (hover to see other rain measurements)
** Current wind speed in m/s (hover to see current wind gust speed)